[[{"header":{"parameterUnit":"m.s-1","parameterCategory":1,"la1":30.2991,"la2":30.254,"lo1":-89.0895,"lo2":-89.0444,"dy":0.0017,"dx":0.0017,"nx":28,"ny":28,"refTime":"2024-06-08T03:00:00:Z","depth":0,"parameterNumber":2,"parameterNumberName":"U-component_of_WINDS"},"data":[0,0,0,0,0,0,0,0,0,0,0,0,0,0,0,0,0,0,0,0,0,0,0,0,0,0,0,0,0,0,0,0,0,0,0,0,0,0,0,0,0,0,0,0,0,0,0,0,0,0,0,0,0,0,0,0,0,0,1.8527,1.8527,0,1.8542,1.8542,1.8542,1.8503,1.8502,1.8501,1.8499,1.8513,1.8514,1.8516,0,0,0,0,0,0,0,0,0,0,0,0,0,1.8464,1.8466,1.8527,1.8527,1.8528,1.8542,1.8542,1.8542,1.8503,1.8502,1.85,1.8499,1.8512,1.8514,1.8516,0,0,0,0,0,0,0,0,0,0,0,0,0,1.8487,1.8466,1.8527,1.851,1.8508,1.8542,1.8542,1.8542,1.8504,1.8502,1.85,1.8498,1.8512,1.8514,1.8516,1.8567,0,0,1.8523,1.8524,0,0,0,0,0,0,0,0,1.8485,1.8489,1.8512,1.8511,1.851,1.8519,1.8525,1.8551,1.8504,1.8505,1.8499,1.8497,1.8516,1.8518,1.8525,1.8567,1.8568,1.8523,1.8525,1.8526,1.8526,0,0,0,0,0,0,0,1.8484,1.8488,1.8533,1.8513,1.8511,1.8501,1.8502,1.853,1.8521,1.8505,1.8502,1.8505,1.8515,1.8523,1.8525,1.8568,1.8523,1.8525,1.8527,1.8527,1.8655,1.8656,0,0,0,0,0,0,1.8485,1.8487,1.8532,1.8533,1.8493,1.8504,1.8505,1.8518,1.852,1.8519,1.8506,1.8503,1.852,1.8522,1.8525,1.8585,1.8526,1.8528,1.8529,1.8653,1.8655,1.8657,0,0,0,0,0,0,1.8484,1.8489,1.8532,1.851,1.8514,1.8507,1.8521,1.8519,1.8526,1.8521,1.8519,1.8516,1.8518,1.8522,1.8557,1.8585,1.8529,1.8531,1.865,1.8653,1.8656,1.8706,0,0,0,0,0,0,1.8482,1.8489,1.8508,1.851,1.8516,1.8564,1.8523,1.8521,1.8531,1.8526,1.853,1.8528,1.8517,1.8554,1.8559,1.8587,1.8533,1.8648,1.8652,1.8655,1.8701,1.871,1.8717,0,0,0,0,0,1.848,1.8521,1.8509,1.8515,1.8539,1.8566,1.8569,1.8555,1.8533,1.8552,1.8549,1.8528,1.8581,1.8558,1.8564,1.8593,1.8646,1.865,1.8655,1.8698,1.8708,1.8717,0,0,0,0,0,0,1.8521,1.8521,1.8508,1.8551,1.8559,1.8559,1.8582,1.8567,1.858,1.8576,1.8558,1.856,1.8598,1.8599,1.8573,1.8642,1.861,1.8616,1.864,1.865,1.8658,1.8657,1.8534,0,0,0,0,0,1.8535,1.8557,1.8555,1.8593,1.8598,1.859,1.8601,1.859,1.8597,1.86,1.86,1.8607,1.8626,1.8638,1.8655,1.8702,1.8702,1.8724,1.8732,1.8739,1.8744,1.877,1.878,1.8672,1.8672,1.8672,0,0,1.8564,1.8567,1.8581,1.8601,1.8606,1.8629,1.8593,1.8618,1.8635,1.8604,1.8637,1.8638,1.8645,1.8687,1.8705,1.8688,1.8774,1.8745,1.875,1.8752,1.8776,1.8786,1.8795,1.8675,1.8675,1.8674,0,0,1.8629,1.8633,1.8665,1.8672,1.868,1.8675,1.8683,1.8686,1.8685,1.8719,1.8697,1.8716,1.8748,1.8755,1.8762,1.8832,1.8814,1.8838,1.8879,1.8905,1.8913,1.8921,1.8946,1.8955,1.8843,1.8844,1.8844,0,1.8663,1.8697,1.8684,1.8712,1.8721,1.8696,1.8729,1.8736,1.8749,1.8756,1.8738,1.8779,1.8781,1.8825,1.8842,1.8849,1.8858,1.8837,1.8913,1.8921,1.8927,1.8951,1.8961,1.8846,1.8846,1.8846,1.8846,0,1.874,1.8764,1.8789,1.8804,1.8817,1.8847,1.8839,1.8853,1.8842,1.8839,1.8874,1.8878,1.8895,1.8905,1.8893,1.8947,1.8937,1.8916,1.8883,1.8941,1.8963,1.8972,1.8851,1.885,1.8849,1.8848,0,0,1.8829,1.8838,1.8847,1.8855,1.8863,1.8881,1.8911,1.8929,1.8942,1.8952,1.8977,1.9006,1.8987,1.8996,1.8986,1.9008,1.9064,1.8985,1.8985,1.9,1.9124,1.9139,1.915,1.9053,1.9054,1.9056,1.9124,0,1.8893,1.8945,1.8935,1.8985,1.9007,1.8984,1.901,1.9018,1.9017,1.9035,1.9033,1.9054,1.9028,1.9033,1.9055,1.9053,1.9089,1.9048,1.9075,1.9076,1.9074,1.9162,1.9178,1.9242,1.9132,1.9134,1.9135,0,1.8974,1.899,1.9043,1.9049,1.9058,1.9082,1.9098,1.9116,1.9126,1.9123,1.9134,1.912,1.9149,1.9117,1.9157,1.913,1.914,1.9142,1.9144,1.9145,1.9109,1.9166,1.9262,1.9271,1.9148,1.9147,1.9146,0,1.9035,1.9068,1.9104,1.9111,1.912,1.9137,1.9141,1.9148,1.9161,1.9175,1.9183,1.92,1.921,1.9224,1.9215,1.9192,1.9258,1.9224,1.9256,1.9257,1.927,1.927,1.9369,1.9278,1.9278,1.9278,1.9278,0,1.9107,1.914,1.9132,1.9154,1.9191,1.918,1.9216,1.9218,1.9225,1.9247,1.9229,1.925,1.9237,1.9257,1.9251,1.9286,1.929,1.9289,1.9287,1.9291,1.9291,1.9297,1.9292,1.928,1.928,1.9279,1.9279,0,1.918,1.9176,1.9214,1.922,1.9222,1.9249,1.9254,1.9274,1.9272,1.9301,1.9307,1.9303,1.9326,1.9319,1.9344,1.9339,1.9384,1.9376,1.9381,1.9379,1.9412,1.9409,1.9519,1.9533,1.9433,1.9434,1.9435,0,1.9226,1.9252,1.9261,1.9275,1.9281,1.9304,1.9316,1.9307,1.9321,1.9334,1.9354,1.9376,1.9392,1.943,1.943,1.9449,1.9441,1.9478,1.9444,1.9447,1.9442,1.944,1.9443,1.9485,1.9486,1.9487,1.9488,0,1.9309,1.9306,1.9326,1.9345,1.9362,1.9376,1.9389,1.9401,1.9393,1.9409,1.9434,1.9447,1.9473,1.9495,1.9513,1.9517,1.9501,1.9499,1.9507,1.9511,1.9513,1.9513,1.94,1.9496,1.9495,1.9495,1.9494,1.9494,1.937,1.9392,1.9403,1.9425,1.9434,1.9447,1.9468,1.9469,1.9489,1.951,1.9503,1.9531,1.9541,1.9563,1.957,1.9592,1.9577,1.9589,1.9592,1.9595,1.96,1.9511,1.9595,1.9594,1.9594,1.9594,1.9594,0,1.9452,1.9458,1.948,1.9499,1.9517,1.9502,1.9516,1.9532,1.9557,1.9568,1.9586,1.9614,1.9636,1.9638,1.9658,1.9675,1.9669,1.9681,1.9679,1.9681,1.9611,1.9602,1.9686,1.9686,1.9686,1.9686,1.9686,1.9686,1.9497,1.9534,1.9532,1.9574,1.958,1.9607,1.9617,1.9629,1.9638,1.9671,1.9689,1.9691,1.9698,1.9719,1.9739,1.9739,1.9747,1.9762,1.976,1.9695,1.9685,1.9677,1.9668,1.9764,1.9764,1.9827,1.9828,1.9828]},{"header":{"parameterUnit":"m.s-1","parameterCategory":1,"la1":30.2991,"la2":30.254,"lo1":-89.0895,"lo2":-89.0444,"dy":0.0017,"dx":0.0017,"nx":28,"ny":28,"refTime":"2024-06-08T03:00:00:Z","depth":0,"parameterNumber":3,"parameterNumberName":"V-component_of_WINDS"},"data":[0,0,0,0,0,0,0,0,0,0,0,0,0,0,0,0,0,0,0,0,0,0,0,0,0,0,0,0,0,0,0,0,0,0,0,0,0,0,0,0,0,0,0,0,0,0,0,0,0,0,0,0,0,0,0,0,0,0,0.7155,0.7154,0,0.7097,0.7096,0.7095,0.7056,0.7056,0.7055,0.7055,0.6996,0.6995,0.6994,0,0,0,0,0,0,0,0,0,0,0,0,0,0.7231,0.723,0.7155,0.7154,0.7153,0.7097,0.7096,0.7095,0.7056,0.7056,0.7055,0.7055,0.6997,0.6995,0.6993,0,0,0,0,0,0,0,0,0,0,0,0,0,0.7188,0.7229,0.7155,0.7127,0.7124,0.7097,0.7096,0.7095,0.7056,0.7056,0.7055,0.7055,0.6997,0.6995,0.6993,0.699,0,0,0.6987,0.6986,0,0,0,0,0,0,0,0,0.719,0.7185,0.7132,0.7129,0.7125,0.7083,0.7101,0.706,0.7056,0.7082,0.7055,0.7055,0.7025,0.7021,0.7011,0.6987,0.6984,0.6987,0.6986,0.6985,0.6984,0,0,0,0,0,0,0,0.7193,0.7187,0.7132,0.7131,0.7127,0.7117,0.711,0.7093,0.7057,0.708,0.7077,0.707,0.7024,0.7013,0.701,0.6984,0.6987,0.6985,0.6984,0.6983,0.6952,0.6953,0,0,0,0,0,0,0.7201,0.719,0.7134,0.713,0.7157,0.7116,0.7109,0.7097,0.7057,0.705,0.7071,0.7069,0.7017,0.7012,0.7007,0.6999,0.6985,0.6983,0.6982,0.6952,0.6952,0.6953,0,0,0,0,0,0,0.7202,0.7196,0.7136,0.7159,0.7151,0.7115,0.7102,0.7096,0.7086,0.705,0.7043,0.7067,0.7016,0.701,0.6994,0.6997,0.6982,0.6981,0.6951,0.6952,0.6952,0.6985,0,0,0,0,0,0,0.7205,0.7197,0.7195,0.7159,0.715,0.7124,0.7103,0.7095,0.7082,0.7079,0.7045,0.7038,0.7015,0.6997,0.6992,0.6994,0.6979,0.6951,0.6952,0.6952,0.6983,0.6986,0.6989,0,0,0,0,0,0.7208,0.7207,0.7196,0.7189,0.7147,0.7124,0.7119,0.7092,0.7083,0.7081,0.7058,0.704,0.6998,0.6996,0.699,0.6991,0.6951,0.6951,0.6952,0.6982,0.6986,0.6989,0,0,0,0,0,0,0.7245,0.7202,0.7189,0.7177,0.7154,0.7118,0.7114,0.7097,0.7077,0.7075,0.7043,0.7035,0.7022,0.7005,0.7004,0.6985,0.6972,0.6972,0.6997,0.7,0.7003,0.7007,0.6977,0,0,0,0,0,0.7252,0.7237,0.72,0.7193,0.7182,0.715,0.7139,0.7121,0.7096,0.7087,0.7063,0.704,0.7021,0.701,0.6991,0.6981,0.6972,0.6979,0.6982,0.6984,0.6984,0.6976,0.6978,0.6955,0.6955,0.6955,0,0,0.7266,0.724,0.7233,0.72,0.718,0.7165,0.7143,0.7128,0.7116,0.7085,0.7068,0.7049,0.7021,0.7008,0.7001,0.6993,0.6988,0.6985,0.6987,0.6986,0.6977,0.6979,0.6981,0.6956,0.6956,0.6956,0,0,0.7283,0.7263,0.7254,0.7235,0.7205,0.7184,0.7182,0.7147,0.7134,0.7116,0.7092,0.7077,0.7046,0.7027,0.7013,0.7023,0.7005,0.7017,0.7032,0.7025,0.7027,0.7028,0.703,0.7032,0.7017,0.7018,0.7018,0,0.7304,0.728,0.7252,0.7238,0.7224,0.7194,0.7184,0.7167,0.7133,0.7124,0.7116,0.7076,0.7055,0.7036,0.7038,0.7028,0.7025,0.7021,0.7029,0.703,0.7031,0.7033,0.7034,0.7019,0.7019,0.7019,0.7019,0,0.7307,0.7291,0.7287,0.7255,0.724,0.7229,0.7198,0.7187,0.7169,0.7148,0.713,0.7104,0.7079,0.7073,0.7056,0.7052,0.7048,0.7035,0.7021,0.7035,0.7036,0.7037,0.7022,0.7021,0.702,0.702,0,0,0.7346,0.7297,0.7296,0.7281,0.7246,0.7233,0.722,0.7195,0.7185,0.7163,0.715,0.7124,0.7111,0.7096,0.7076,0.707,0.7078,0.7058,0.7056,0.7062,0.707,0.708,0.7081,0.7066,0.7066,0.7066,0.7072,0,0.7357,0.7332,0.7306,0.729,0.7274,0.7245,0.7233,0.7211,0.7191,0.7174,0.7152,0.7134,0.7119,0.7109,0.7102,0.7079,0.7079,0.7078,0.7054,0.7053,0.7061,0.7082,0.7092,0.7099,0.7073,0.7073,0.7073,0,0.7367,0.7346,0.7328,0.7293,0.7286,0.7276,0.725,0.7235,0.7208,0.7194,0.7176,0.7155,0.7139,0.7128,0.7105,0.7105,0.7093,0.708,0.708,0.7076,0.7063,0.7078,0.7101,0.7102,0.7073,0.7073,0.7073,0,0.7397,0.7363,0.7348,0.7335,0.7295,0.7289,0.7271,0.7244,0.723,0.7208,0.7199,0.7175,0.7162,0.7144,0.7117,0.7111,0.7097,0.7083,0.7084,0.7085,0.7082,0.7082,0.7103,0.7076,0.7076,0.7076,0.7076,0,0.7412,0.7402,0.736,0.7351,0.7338,0.7308,0.7297,0.7277,0.7253,0.7239,0.7213,0.72,0.7165,0.7148,0.7127,0.7111,0.7105,0.7093,0.7088,0.7095,0.7097,0.7087,0.7085,0.7076,0.7076,0.7076,0.7076,0,0.7442,0.7414,0.7395,0.7358,0.7349,0.7341,0.7309,0.7299,0.7277,0.726,0.7254,0.722,0.7199,0.717,0.714,0.7126,0.7112,0.7104,0.7121,0.7117,0.712,0.712,0.7134,0.7134,0.7108,0.7109,0.7109,0,0.7453,0.7445,0.7407,0.7395,0.7379,0.7361,0.7347,0.7316,0.7302,0.7271,0.7264,0.724,0.722,0.7187,0.7159,0.7136,0.7126,0.7133,0.7123,0.713,0.7125,0.7126,0.7124,0.7135,0.7136,0.7136,0.7136,0,0.7476,0.7462,0.7442,0.7418,0.7401,0.738,0.7358,0.735,0.7315,0.7301,0.7278,0.7262,0.7231,0.7208,0.718,0.7162,0.7143,0.714,0.7139,0.7146,0.7156,0.715,0.7127,0.714,0.7139,0.7139,0.7139,0.7139,0.7496,0.7487,0.7458,0.7437,0.7417,0.7397,0.7385,0.7361,0.7342,0.7314,0.7297,0.7275,0.7248,0.7209,0.7192,0.7174,0.7167,0.7165,0.7165,0.7165,0.7167,0.7159,0.7169,0.7169,0.7169,0.7169,0.7169,0,0.7516,0.7496,0.7477,0.7447,0.743,0.7413,0.7388,0.7374,0.7355,0.7331,0.7311,0.7285,0.7262,0.7233,0.7208,0.7199,0.719,0.7193,0.7193,0.7189,0.7175,0.7178,0.7201,0.7201,0.7201,0.7201,0.7201,0.7201,0.7525,0.7508,0.7491,0.7463,0.7443,0.7421,0.7408,0.7389,0.7369,0.7341,0.7322,0.7303,0.7276,0.7249,0.7227,0.7219,0.7211,0.7217,0.7206,0.7193,0.7191,0.7188,0.719,0.7216,0.7216,0.7221,0.7222,0.7222]}]]